Zurück zum Katalog

SL-8 R/B

AktivPO
NORAD 24306·ROCKET BODY·🇷🇺 Russia

Gestartet Sep 5, 1996 von Plesetsk Cosmodrome

Loading…

Nächste Überflüge (nächste 24 Stunden)

TLE

AktuellSource: Space-Track

Epoche: Sep 14, 2026, 05:14 UTC

1 24306U 96052C   26257.21826509  .00000075  00000-0  63000-4 0  9997
2 24306  82.9396 356.7758 0025228 325.6310  34.3213 13.75269601506449

Verfolge SL-8 R/B in Echtzeit mit AllMySat

Download on the App Store